Zermatt, Switzerland 16 day weather forecast

Slopes altitude range 1620 m - 3820m

Number of lifts: 34 Pistes: 200km

In some cases the lift and piste totals shown are for the ski domain (e.g. Three Valleys) rather than individual resort (e.g. Courchevel)

Overview

The 16 day weather forecast is fully updated 4 times every day.

    • Wed 26 JUN 2019
    • Wed 26
    • 18C 23C
    • Thu 27 JUN 2019
    • Thu 27
    • 19C 23C
    • Fri 28 JUN 2019
    • Fri 28
    • 18C 22C
    • Sat 29 JUN 2019
    • Sat 29
    • 13C 17C
    • Sun 30 JUN 2019
    • Sun 30
    • 15C 20C
    • Mon 01 JUL 2019
    • Mon 01
    • 17C 20C
    • Tue 02 JUL 2019
    • Tue 02
    • 15C 17C
    • Wed 03 JUL 2019
    • Wed 03
    • 12C 14C
    • Thu 04 JUL 2019
    • Thu 04
    • 12C 14C
    • Fri 05 JUL 2019
    • Fri 05
    • 14C 18C
    • Sat 06 JUL 2019
    • Sat 06
    • 13C 16C
    • Sun 07 JUL 2019
    • Sun 07
    • 9C 12C
    • Mon 08 JUL 2019
    • Mon 08
    • 15C 18C
    • Tue 09 JUL 2019
    • Tue 09
    • 15C 17C
    • Wed 10 JUL 2019
    • Wed 10
    • 14C 17C
    • Thu 11 JUL 2019
    • Thu 11
    • 14C 16C

Date:

Time Type 0°C level Temp Chill Snow Cloud Speed Gust Dir Press
3:00 4659m 9°C 9_2 0cm 12% 2mph 3mph 1025mB
6:00 4629m 9°C 9_3 0cm 6% 3mph 4mph 1026mB
9:00 4620m 18°C 18_4 0cm 0% 4mph 7mph 1025mB
12:00 4637m 23°C 23_6 0cm 0% 6mph 7mph 1024mB
15:00 4559m 23°C 23_4 0cm 78% 4mph 3mph 1023mB
18:00 4577m 23°C 23_7 0cm 89% 7mph 7mph 1025mB
21:00 4631m 13°C 13_7 0cm 92% 7mph 7mph 1026mB
0:00 4644m 12°C 12_6 0cm 95% 6mph 7mph 1026mB
3:00 4616m 12°C 12_8 0cm 4% 8mph 8mph 1025mB
6:00 4602m 12°C 12_7 0cm 2% 7mph 7mph 1024mB
9:00 4588m 19°C 19_5 0cm 0% 5mph 8mph 1023mB
12:00 4575m 23°C 23_7 0cm 0% 7mph 9mph 1021mB
15:00 4638m 24°C 24_7 0cm 0% 7mph 8mph 1020mB
18:00 4621m 24°C 24_5 0cm 0% 5mph 6mph 1019mB
21:00 4649m 14°C 14_8 0cm 0% 8mph 8mph 1022mB
0:00 4645m 14°C 14_10 0cm 0% 10mph 10mph 1021mB
3:00 4626m 13°C 13_11 0cm 0% 11mph 10mph 1020mB
6:00 4604m 13°C 13_9 0cm 0% 9mph 8mph 1020mB
9:00 4601m 18°C 18_5 0cm 0% 5mph 9mph 1019mB
12:00 4587m 22°C 22_5 0cm 0% 5mph 8mph 1017mB
15:00 4633m 22°C 22_3 0cm 0% 3mph 7mph 1016mB
18:00 4794m 22°C 22_3 0cm 0% 3mph 4mph 1017mB
21:00 4847m 11°C 11_3 0cm 0% 3mph 3mph 1019mB
0:00 4794m 8°C 8_1 0cm 7% 1mph 2mph 1019mB
3:00 4795m 8°C 8_3 0cm 21% 3mph 4mph 1019mB
6:00 4828m 7°C 7_3 0cm 22% 3mph 3mph 1019mB
9:00 4876m 13°C 13_6 0cm 20% 6mph 3mph 1019mB
12:00 4884m 17°C 17_6 0cm 21% 6mph 4mph 1018mB
15:00 4845m 17°C 17_6 0cm 23% 6mph 4mph 1017mB
18:00 4820m 17°C 17_3 0cm 22% 3mph 2mph 1018mB
21:00 4855m 8°C 8_1 0cm 7% 1mph 2mph 1020mB
0:00 4806m 8°C 8_2 0cm 13% 2mph 3mph 1021mB
3:00 4775m 7°C 7_3 0cm 1% 3mph 4mph 1020mB
6:00 4712m 7°C 7_4 0cm 0% 4mph 5mph 1021mB
9:00 4695m 15°C 15_5 0cm 0% 5mph 5mph 1020mB
12:00 4568m 20°C 20_6 0cm 0% 6mph 7mph 1019mB
15:00 4518m 21°C 21_6 0cm 1% 6mph 7mph 1019mB
18:00 4620m 21°C 21_3 0cm 5% 3mph 4mph 1019mB
21:00 4566m 10°C 10_3 0cm 2% 3mph 4mph 1021mB
0:00 4569m 9°C 9_3 0cm 1% 3mph 3mph 1021mB
3:00 4511m 8°C 8_3 0cm 28% 3mph 4mph 1020mB
6:00 4468m 8°C 8_2 0cm 37% 2mph 3mph 1020mB
9:00 4437m 17°C 17_5 0cm 24% 5mph 4mph 1019mB
12:00 4420m 20°C 20_5 0cm 44% 5mph 4mph 1018mB
15:00 4476m 20°C 20_6 0cm 81% 6mph 6mph 1016mB
18:00 4318m 20°C 20_5 0cm 81% 5mph 5mph 1017mB
21:00 4207m 9°C 9_10 0cm 100% 10mph 10mph 1020mB
0:00 4095m 9°C 9_2 0cm 100% 2mph 2mph 1019mB
3:00 4225m 8°C 8_2 0cm 93% 2mph 2mph 1018mB
6:00 4221m 7°C 7_2 0cm 72% 2mph 3mph 1018mB
9:00 4266m 15°C 15_4 0cm 87% 4mph 2mph 1017mB
12:00 4337m 17°C 17_3 0cm 93% 3mph 3mph 1016mB
15:00 4285m 16°C 16_6 0cm 100% 6mph 6mph 1016mB
18:00 4061m 16°C 16_4 0cm 96% 4mph 4mph 1016mB
21:00 4160m 10°C 10_4 0cm 100% 4mph 5mph 1018mB
0:00 4082m 8°C 8_4 0cm 100% 4mph 4mph 1018mB
3:00 4015m 7°C 7_3 0cm 32% 3mph 4mph 1018mB
6:00 3968m 6°C 6_2 0cm 47% 2mph 1mph 1018mB
9:00 4069m 12°C 12_4 0cm 77% 4mph 2mph 1017mB
12:00 4145m 14°C 14_4 0cm 85% 4mph 3mph 1017mB
15:00 4138m 14°C 14_4 0cm 97% 4mph 2mph 1016mB
18:00 4153m 14°C 14_1 0cm 99% 1mph 2mph 1017mB
21:00 4049m 8°C 8_2 0cm 90% 2mph 2mph 1018mB
0:00 4008m 7°C 7_3 0cm 95% 3mph 3mph 1019mB
3:00 4013m 6°C 6_2 0cm 98% 2mph 3mph 1018mB
6:00 4087m 6°C 6_1 0cm 62% 1mph 2mph 1018mB
9:00 4158m 12°C 12_4 0cm 7% 4mph 3mph 1018mB
12:00 4141m 14°C 14_5 0cm 44% 5mph 4mph 1017mB
15:00 4178m 15°C 15_5 0cm 60% 5mph 4mph 1017mB
18:00 4205m 15°C 15_2 0cm 47% 2mph 2mph 1017mB
21:00 4162m 9°C 9_4 0cm 42% 4mph 5mph 1018mB
0:00 4158m 8°C 8_3 0cm 21% 3mph 4mph 1019mB
3:00 4192m 7°C 7_4 0cm 67% 4mph 5mph 1018mB
6:00 4144m 7°C 7_3 0cm 54% 3mph 4mph 1018mB
9:00 4115m 14°C 14_3 0cm 70% 3mph 5mph 1018mB
12:00 4156m 18°C 18_2 0cm 39% 2mph 5mph 1017mB
15:00 4219m 18°C 18_2 0cm 60% 2mph 3mph 1016mB
18:00 4216m 18°C 18_1 0cm 52% 1mph 2mph 1017mB
21:00 4238m 11°C 11_7 0cm 67% 7mph 7mph 1019mB
0:00 4142m 9°C 9_6 0cm 69% 6mph 6mph 1019mB
Afternoon 0.104167mm 0.3125 3878m 16°C 16_5 0cm 4% 5mph 7mph 1018mB
Morning 0mm 0 4094m 4°C 4_4 0cm 0% 4mph 6mph 1021mB
Afternoon 0.0208333mm 0 4623m 12°C 12_7 0cm 46% 7mph 4mph 1020mB
Morning 0mm 0 4543m 5°C 5_2 0cm 54% 2mph 3mph 1020mB
Afternoon 0.104167mm 0.375 4477m 18°C 18_5 0cm 41% 5mph 3mph 1017mB
Morning 0.104167mm 0.375 4459m 7°C 7_2 0cm 75% 2mph 2mph 1018mB
Afternoon 0.4375mm 1.3125 4430m 17°C 17_2 0cm 6% 2mph 4mph 1017mB
Morning 0.354167mm 1 4264m 8°C 8_2 0cm 62% 2mph 3mph 1019mB
Afternoon 0.583333mm 1.8125 4246m 17°C 17_1 0cm 71% 1mph 4mph 1016mB
Morning 0.0625mm 0.1875 4109m 8°C 8_2 0cm 53% 2mph 3mph 1016mB
Afternoon 0.625mm 1.875 4228m 16°C 16_5 0cm 34% 5mph 3mph 1012mB
Morning 0.1875mm 0.3125 3990m 6°C 6_4 0cm 47% 4mph 5mph 1011mB

16 day outlook at a glance

Forecast issued: 6/26/2019 8:48:04 AM

Chat

Your comments and questions. In a resort? Let us know what it's like!


Characters left 250

For terms and conditions see Readers Comments on the Cookie and privacy policy page.